| time (UTC) | temp F | wind direction | speed MPH | gust MPH | rain 1hr in | rain 24hr in | rain mn in | humidity % | barometer mb |
| 20260505124505 | 72 | 101 | 0.0 | 4.0 | 0.00 | 0.00 | 0.00 | 84 | 1001.9 |
| 20260505123004 | 71 | 146 | 1.0 | 7.0 | 0.00 | 0.00 | 0.00 | 84 | 1001.7 |
| 20260505121504 | 71 | 131 | 2.0 | 9.0 | 0.00 | 0.00 | 0.00 | 84 | 1001.5 |
| 20260505120101 | 71 | 254 | 0.0 | 6.0 | 0.00 | 0.00 | 0.00 | 85 | 1001.5 |
| 20260505114605 | 71 | 140 | 0.0 | 8.0 | 0.00 | 0.00 | 0.00 | 85 | 1001.3 |
| 20260505113100 | 71 | 262 | 0.0 | 8.0 | 0.00 | 0.00 | 0.00 | 84 | 1001.3 |
| 20260505111602 | 71 | 268 | 1.0 | 8.0 | 0.00 | 0.00 | 0.00 | 84 | 1001.3 |
| 20260505101555 | 71 | 140 | 0.0 | 7.0 | 0.00 | 0.00 | 0.00 | 84 | 1001.2 |
| 20260505100101 | 71 | 128 | 0.0 | 4.0 | 0.00 | 0.00 | 0.00 | 84 | 1001.4 |
| 20260505094553 | 71 | 92 | 0.0 | 8.0 | 0.00 | 0.00 | 0.00 | 84 | 1001.6 |
| 20260505093051 | 71 | 159 | 0.0 | 5.0 | 0.00 | 0.00 | 0.00 | 84 | 1001.6 |
| 20260505091551 | 71 | 128 | 0.0 | 9.0 | 0.00 | 0.00 | 0.00 | 84 | 1001.7 |
| 20260505090100 | 71 | 275 | 0.0 | 8.0 | 0.00 | 0.00 | 0.00 | 84 | 1001.7 |
| 20260505084548 | 71 | 200 | 1.0 | 10.0 | 0.00 | 0.00 | 0.00 | 84 | 1001.8 |
| 20260505083052 | 71 | 234 | 1.0 | 9.0 | 0.00 | 0.00 | 0.00 | 84 | 1001.8 |
| 20260505081549 | 71 | 188 | 0.0 | 4.0 | 0.00 | 0.00 | 0.00 | 83 | 1002.0 |
| 20260505080054 | 71 | 144 | 0.0 | 7.0 | 0.00 | 0.00 | 0.00 | 83 | 1001.9 |
| 20260505074542 | 71 | 221 | 0.0 | 8.0 | 0.00 | 0.00 | 0.00 | 82 | 1002.2 |
| 20260505073052 | 71 | 154 | 1.0 | 6.0 | 0.00 | 0.00 | 0.00 | 82 | 1002.5 |
| 20260505071537 | 71 | 116 | 0.0 | 4.0 | 0.00 | 0.00 | 0.00 | 81 | 1002.7 |
| 20260505070035 | 72 | 174 | 0.0 | 7.0 | 0.00 | 0.00 | 0.00 | 81 | 1002.9 |
| 20260505064533 | 72 | 141 | 0.0 | 10.0 | 0.00 | 0.00 | 0.00 | 80 | 1002.9 |
| 20260505063035 | 72 | 173 | 0.0 | 11.0 | 0.00 | 0.00 | 0.00 | 80 | 1003.0 |
| 20260505061531 | 72 | 274 | 0.0 | 5.0 | 0.00 | 0.00 | 0.00 | 79 | 1003.0 |
| 20260505060034 | 72 | 144 | 0.0 | 5.0 | 0.00 | 0.00 | 0.00 | 78 | 1003.1 |
| 20260505054530 | 72 | 148 | 1.0 | 9.0 | 0.00 | 0.00 | 0.00 | 78 | 1003.1 |
| 20260505053028 | 72 | 130 | 0.0 | 5.0 | 0.00 | 0.00 | 0.00 | 77 | 1003.2 |
| 20260505051526 | 73 | 135 | 0.0 | 6.0 | 0.00 | 0.00 | 0.00 | 76 | 1003.4 |
| 20260505041538 | 74 | 126 | 1.0 | 9.0 | 0.00 | 0.00 | 0.00 | 73 | 1003.7 |
| 20260505040022 | 74 | 155 | 0.0 | 6.0 | 0.00 | 0.00 | 0.00 | 73 | 1003.9 |
| 20260505034521 | 74 | 98 | 1.0 | 4.0 | 0.00 | 0.00 | 0.00 | 73 | 1003.6 |
| 20260505033021 | 74 | 137 | 0.0 | 4.0 | 0.00 | 0.00 | 0.00 | 72 | 1003.5 |
| 20260505031520 | 74 | 126 | 0.0 | 7.0 | 0.00 | 0.00 | 0.00 | 71 | 1003.6 |
| 20260505030021 | 75 | 140 | 0.0 | 8.0 | 0.00 | 0.00 | 0.00 | 70 | 1003.7 |
| 20260505024522 | 75 | 146 | 0.0 | 9.0 | 0.00 | 0.00 | 0.00 | 70 | 1003.6 |
| 20260505023019 | 75 | 119 | 0.0 | 5.0 | 0.00 | 0.00 | 0.00 | 70 | 1003.6 |
| 20260505021523 | 75 | 154 | 0.0 | 6.0 | 0.00 | 0.00 | 0.00 | 69 | 1003.5 |
| 20260505020019 | 75 | 128 | 0.0 | 7.0 | 0.00 | 0.00 | 0.00 | 69 | 1003.3 |
| 20260505014518 | 76 | 156 | 0.0 | 4.0 | 0.00 | 0.00 | 0.00 | 68 | 1003.5 |
| 20260505013020 | 76 | 147 | 0.0 | 3.0 | 0.00 | 0.00 | 0.00 | 67 | 1003.5 |
| 20260505011524 | 76 | 147 | 0.0 | 7.0 | 0.00 | 0.00 | 0.00 | 66 | 1003.4 |
| 20260505010015 | 77 | 215 | 0.0 | 3.0 | 0.00 | 0.00 | 0.00 | 65 | 1003.4 |
| 20260505004529 | 77 | 128 | 0.0 | 4.0 | 0.00 | 0.00 | 0.00 | 64 | 1003.5 |
| 20260505003014 | 78 | 128 | 0.0 | 6.0 | 0.00 | 0.00 | 0.00 | 63 | 1003.5 |
| 20260505001513 | 79 | 143 | 0.0 | 10.0 | 0.00 | 0.00 | 0.00 | 62 | 1003.8 |
| 20260505000021 | 79 | 194 | 0.0 | 12.0 | 0.00 | 0.00 | 0.00 | 61 | 1003.6 |
| 20260504234510 | 79 | 232 | 1.0 | 13.0 | 0.00 | 0.00 | 0.00 | 60 | 1003.9 |
| 20260504233010 | 79 | 129 | 0.0 | 10.0 | 0.00 | 0.00 | 0.00 | 61 | 1003.9 |
| 20260504231508 | 80 | 131 | 1.0 | 10.0 | 0.00 | 0.00 | 0.00 | 59 | 1004.0 |
| 20260504230014 | 81 | 146 | 2.0 | 10.0 | 0.00 | 0.00 | 0.00 | 57 | 1004.2 |
| 20260504224506 | 81 | 136 | 1.0 | 10.0 | 0.00 | 0.00 | 0.00 | 58 | 1004.4 |
| 20260504223005 | 81 | 188 | 1.0 | 11.0 | 0.00 | 0.00 | 0.00 | 57 | 1004.3 |
| 20260504221505 | 81 | 67 | 1.0 | 12.0 | 0.00 | 0.00 | 0.00 | 58 | 1004.3 |
| 20260504220002 | 81 | 173 | 2.0 | 10.0 | 0.00 | 0.00 | 0.00 | 56 | 1004.7 |
| 20260504214501 | 82 | 238 | 2.0 | 11.0 | 0.00 | 0.00 | 0.00 | 55 | 1004.7 |
| 20260504213139 | 82 | 248 | 1.0 | 12.0 | 0.00 | 0.00 | 0.00 | 54 | 1004.9 |
| 20260504211605 | 82 | 126 | 0.0 | 15.0 | 0.00 | 0.00 | 0.00 | 56 | 1005.1 |
| 20260504210055 | 81 | 157 | 2.0 | 9.0 | 0.00 | 0.00 | 0.00 | 56 | 1005.5 |
| 20260504204556 | 81 | 182 | 1.0 | 11.0 | 0.00 | 0.00 | 0.00 | 55 | 1005.6 |
| 20260504203112 | 81 | 180 | 2.0 | 17.0 | 0.00 | 0.00 | 0.00 | 56 | 1005.9 |
| 20260504201550 | 82 | 265 | 1.0 | 10.0 | 0.00 | 0.00 | 0.00 | 54 | 1006.3 |
| 20260504200051 | 81 | 247 | 1.0 | 10.0 | 0.00 | 0.00 | 0.00 | 54 | 1006.6 |
| 20260504194558 | 81 | 133 | 1.0 | 7.0 | 0.00 | 0.00 | 0.00 | 54 | 1006.9 |
| 20260504193053 | 81 | 142 | 1.0 | 10.0 | 0.00 | 0.00 | 0.00 | 54 | 1007.0 |
| 20260504191541 | 80 | 134 | 1.0 | 12.0 | 0.00 | 0.00 | 0.00 | 53 | 1007.2 |
| 20260504190041 | 80 | 152 | 3.0 | 11.0 | 0.00 | 0.00 | 0.00 | 53 | 1007.5 |
| 20260504184543 | 80 | 116 | 1.0 | 12.0 | 0.00 | 0.00 | 0.00 | 53 | 1007.7 |
| 20260504183035 | 79 | 259 | 1.0 | 11.0 | 0.00 | 0.00 | 0.00 | 53 | 1007.9 |
| 20260504181533 | 79 | 173 | 3.0 | 16.0 | 0.00 | 0.00 | 0.00 | 53 | 1008.2 |
| 20260504180031 | 78 | 224 | 2.0 | 14.0 | 0.00 | 0.00 | 0.00 | 53 | 1008.3 |
| 20260504174528 | 78 | 169 | 1.0 | 10.0 | 0.00 | 0.00 | 0.00 | 51 | 1008.8 |
| 20260504173034 | 77 | 240 | 2.0 | 10.0 | 0.00 | 0.00 | 0.00 | 50 | 1008.8 |
| 20260504171524 | 77 | 175 | 1.0 | 7.0 | 0.00 | 0.00 | 0.00 | 49 | 1009.1 |